Regional Weather Roundup
Issued by NWS New Orleans/Baton Rouge, LA

Home | Current Version | Previous Version | Text Only | Print | Product List | Glossary On
Versions: 1 2 3 4 5 6 7 8 9 10 11 12 13 14 15 16 17 18 19 20 21 22 23 24 25 26 27 28 29 30 31 32 33 34 35 36 37 38 39 40 41 42 43 44 45 46 47 48 49 50
000
ASUS44 KLIX 170610
RWRLIX
NEW ORLEANS REGIONAL WEATHER ROUNDUP
NATIONAL WEATHER SERVICE NEW ORLEANS LA
100 AM CDT WED SEP 17 2014

NOTE: "FAIR" INDICATES FEW OR NO CLOUDS BELOW 12,000 FEET WITH NO
      SIGNIFICANT WEATHER AND/OR OBSTRUCTIONS TO VISIBILITY.
      SKY/WX - SKY CONDITION AND SIGNIFICANT WEATHER.
      TMP - AIR TEMPERATURE.     DP    - DEWPOINT TEMPERATURE.
      RH  - RELATIVE HUMIDITY.   PRES  - PRESSURE.
      HI  - HEAT INDEX.          WCI   - WIND CHILL INDEX.

*  THESE STATIONS ARE NOT NWS OR FAA STATIONS AND ARE NOT UNDER
   NWS QUALITY CONTROL.

LAZ038-040-048-061>063-065>067-069-170700-
SOUTHEAST LOUISIANA

CITY           SKY/WX    TMP DP  RH WIND       PRES   REMARKS
N.O. AUDUBON     N/A     78  78  98 MISG        N/A
6HR MIN TEMP:  76; 6HR MAX TEMP:  79; 6HR PCP:  0.01;

N.O. INTL ARPT CLOUDY    77  72  84 N7        29.98F
6HR MIN TEMP:  76; 6HR MAX TEMP:  78; 6HR PCP: TRACE;

N.O. LAKEFRONT CLOUDY    78  71  79 N8        29.98F
6HR MIN TEMP:  78; 6HR MAX TEMP:  80; 6HR PCP:  0.01;

N.O. DOWNTOWN*   N/A     77  70  78 CALM      29.99F
6HR MIN TEMP:  77; 6HR MAX TEMP:  79; 6HR PCP:  0.02;

SLIDELL        CLOUDY    74  71  91 CALM      29.97F
6HR MIN TEMP:  74; 6HR MAX TEMP:  76;

BATON ROUGE    CLOUDY    73  72  96 CALM      29.99F
6HR MIN TEMP:  73; 6HR MAX TEMP:  75; 6HR PCP: TRACE;

BOOTHVILLE     MOCLDY    77  75  93 W5        29.99F
6HR MIN TEMP:  77; 6HR MAX TEMP:  80; 6HR PCP:  0.01;

BELLE CHASSE   MOCLDY    76  72  87 CALM      29.97F
6HR MIN TEMP:  76; 6HR MAX TEMP:  78; 6HR PCP: TRACE;

BOGALUSA*        N/A     75  71  88 CALM      30.01S
6HR MIN TEMP:  74; 6HR MAX TEMP:  77; 6HR PCP:  0.01;

GALLIANO*      NOT AVBL
NEW ROADS*       N/A     73  73  98 CALM      30.00S FOG
6HR MIN TEMP:  73; 6HR MAX TEMP:  74; 6HR PCP:  0.03;

GONZALES*        N/A     73  72  99 CALM      29.99F
6HR MIN TEMP:  72; 6HR MAX TEMP:  73; 6HR PCP:  0.01;

HAMMOND*       CLOUDY    73  70  88 CALM      30.01F
HOUMA*         CLOUDY    74  71  89 CALM      30.00S
6HR MIN TEMP:  74; 6HR MAX TEMP:  78;

PORT FOURCHON* NOT AVBL

$$

MSZ070-080>082-170700-
SOUTHERN MISSISSIPPI

CITY           SKY/WX    TMP DP  RH WIND       PRES   REMARKS
MCCOMB         FOG       73  71  93 CALM      30.02F VSB 3/4
6HR MIN TEMP:  72; 6HR MAX TEMP:  75; 6HR PCP:  0.62;

GULFPORT       CLOUDY    74  71  91 CALM      29.96F
6HR MIN TEMP:  74; 6HR MAX TEMP:  77; 6HR PCP:  0.05;

BILOXI         CLOUDY    74  71  90 NE2       29.97F
6HR MIN TEMP:  74; 6HR MAX TEMP:  77; 6HR PCP:  0.04;

PASCAGOULA     CLOUDY    73  72  96 CALM      29.98S
6HR MIN TEMP:  73; 6HR MAX TEMP:  74; 6HR PCP: TRACE;


$$

COASTAL OBSERVATIONS
LAKE AND NEARSHORE STATIONS

STATION/POSITION TIME  TEMP    WIND        PRES    WAVE
                       AIR SEA DIR/SP/G            HT/PER
                 (UTC) (F)     (DEG/KT/KT) (MB)    (FT/S)
PASCAGOULA       0600   75     330/  2/  4 1014.5
WAVELAND YACHT   0600   76     360/  2/  3 1014.2
GRAND ISLE       0600   80 85  320/  4/  6 1015.9
SOUTHWEST PASS   0600   82 90  310/  6/ 11 1015.7
NEW CANAL        0600   79 82   10/  5/  7 1015.7
SHELL BEACH      0600   79 80  330/ 10/ 11 1014.9

OFFSHORE STATIONS

STATION/POSITION TIME  TEMP    WIND        PRES    WAVE
                       AIR SEA DIR/SP/G            HT/PER
                 (UTC) (F)     (DEG/KT/KT) (MB)    (FT/S)
64 S DAUPHIN ISL 0538   81 85  320/  6/  8 1015.5    3/ 4

$$



USA.gov is the U.S. government's official web portal to all federal, state and local government web resources and services.